FENGYUN 1C DEB, 37003

Orbit data source: Space-Track

FENGYUN 1C DEB, 37003 is space debris in SSO originally from a launch on Mon, 10 May 1999 UTC launched from the Taiyaun Space Center, China (TSC). Fengyun 1C debris stems from the Chinese weather satellite Fengyun-1C, which was intentionally destroyed by a Chinese anti-satellite missile in 2007. This event dramatically increased the amount of space debris, with thousands of trackable fragments posing hazards to satellites and human spaceflight. The Fengyun 1C debris cloud has become a focal point in discussions about space sustainability and the need for international regulations to prevent the creation of new debris.

Loading next visibility...
Identifier
37003, 1999-025ECK
Orbit
SSO
Country
Flag of CNCN / PRC
Related business
Manufacturer
Unknown
Mission
Spacecraft
Bus & Motor
Unknown
Mass
Unknown
Launch date (UTC)
1999-05-10 (27 years ago)
Launch vehicle
Unknown
Launch site
Taiyaun Space Center, China (TSC)
Object type
Payload
Rocket body
Debris
Shape & HBR
Unknown shape, 0.1 m
Radar Cross Section
Small (<0.1 m²)

Expand to show TLE details & history
Last TLE update: 4 hours ago

TLE from 4 hours ago
0 FENGYUN 1C DEB
1 37003U 99025ECK 26255.28820356  .00000520  00000-0  38933-3 0  9998
2 37003  98.8298 273.1046 0097070 127.0031 248.7729 13.96659902644754
Epoch: 2026-09-12T06:55Z
TLE epoch observation values (Epoch: 2026-09-12T06:55:00.787Z)
Latitude
14.53814°
Longitude
175.75528°
Altitude
933.743 km
Speed
7.373 km/s
True Right ascension
18h 03m 13s
True Declination
14° 27' 25"
Sunlit
Object was in daylight at epoch
Visualization orbit readout
Latitude
Unknown
Longitude
Unknown
Altitude
Unknown
Speed
Unknown
Apparent Right ascension
Unknown
Apparent Declination
Unknown
Sunlit
N/A
Visualization observer readout
Local Sidereal Time
03:49:03
Azimuth
Unknown
Elevation
Unknown
Doppler factor
Unknown
Orbital elements
Apogee altitude
973.254 km
Perigee altitude
831.906 km
Semi-major axis
7,280.717 km
Eccentricity
0.00971
Inclination
98.8298°
RAAN
273.1046°
Arg. of periapsis
127.0031°
True anomaly
247.74062°
Mean anomaly
248.7729°
Eccentric anomaly
248.2563°
Mean motion
3.49367 °/min
Orbital period
103.04 mins
BSTAR
0.00038933
Loading maneuver chart data...
Computing Atmospheric mass density...
Loading historical data...
Loading historical data...
Loading historical data...
Loading historical data...
Loading historical data...
Loading historical data...
Loading historical data...

Documentation

Showing up to 5 results
|